Change the Weather History Date:

Sunday, February 23, 2014

  Actual Average Record
Temperature  
Mean Temperature 84 °F -  
Max Temperature 93 °F 92 °F 100 °F (1998)
Min Temperature 74 °F 76 °F 71 °F (2008)
Cooling Degree Days 18    
Growing Degree Days 34 (Base 50)    
Moisture  
Dew Point 69 °F    
Average Humidity 61    
Maximum Humidity 78    
Minimum Humidity 35    
Precipitation  
Precipitation 0.00 in 0.07 in - ()
Sea Level Pressure  
Sea Level Pressure 29.91 in    
Wind  
Wind Speed 6 mph ()    
Max Wind Speed 15 mph    
Max Gust Speed -    
Visibility 5.4 miles    
Events      
Averages and records for this station are not official NWS values.
T = Trace of Precipitation, MM = Missing Value Source: Averaged Metar Reports

Daily Weather History Graph

Daily Weather History Graph

Search for Another Location

Airport or City:

Trip Planner

Search our weather history database for the weather conditions in past years. The results will help you decide how hot, cold, wet, or windy it might be!

Date:

Astronomy

Feb. 23, 2014 Rise Set
Actual Time 6:42 AM ICT 6:37 PM ICT
Civil Twilight 6:21 AM ICT 6:59 PM ICT
Nautical Twilight 5:56 AM ICT 7:23 PM ICT
Astronomical Twilight 5:32 AM ICT 7:48 PM ICT
Moon 12:39 AM ICT (2/23) 12:43 PM ICT (2/23)
Length of Visible Light 12h 37m
Length of Day
11h 55m
Last Quarter, 44% of the Moon is Illuminated
Feb 23
Last Quarter
Mar 1
New
Mar 8
First Quarter
Mar 17
Full
Mar 24
Last Quarter

Hourly Weather History & Observations

Time (ICT) Temp. Heat Index Dew Point Humidity Pressure Visibility Wind Dir Wind Speed Gust Speed Precip Events Conditions
12:00 AM 78.8 °F - 68.0 °F 69% 29.95 in - North - - N/A   Scattered Clouds
12:30 AM 77.0 °F - 68.0 °F 74% 29.95 in 5.0 mi Variable 2.3 mph - N/A   Scattered Clouds
1:00 AM 79 °F - 71 °F 70% 29.91 in 6 mi Calm Calm - -   Mist
1:00 AM 77.0 °F - 68.0 °F 74% 29.95 in 5.0 mi Calm Calm - N/A   Scattered Clouds
2:30 AM 77.0 °F - 68.0 °F 74% 29.92 in 5.0 mi East 5.8 mph - N/A   Scattered Clouds
3:00 AM 77.0 °F - 68.0 °F 74% 29.92 in 5.0 mi SE 3.5 mph - N/A   Scattered Clouds
4:00 AM 78 °F - 72 °F 75% 29.88 in 6 mi Calm Calm - -   Mist
4:30 AM 77.0 °F - 69.8 °F 78% 29.92 in 5.0 mi ESE 5.8 mph - N/A   Scattered Clouds
5:00 AM 77.0 °F - 69.8 °F 78% 29.92 in 5.0 mi ESE 5.8 mph - N/A   Scattered Clouds
6:00 AM 78.8 °F - 71.6 °F 78% 29.92 in 5.0 mi ENE 11.5 mph - N/A   Scattered Clouds
6:30 AM 78.8 °F - 68.0 °F 69% 29.95 in 5.0 mi ENE 10.4 mph - N/A   Scattered Clouds
7:00 AM 80 °F - 72 °F 71% 29.92 in 6 mi Calm Calm - -   Mist
7:00 AM 78.8 °F - 69.8 °F 74% 29.95 in 5.0 mi ESE 6.9 mph - N/A   Mostly Cloudy
7:30 AM 78.8 °F - 68.0 °F 69% 29.95 in 5.0 mi East 11.5 mph - N/A   Scattered Clouds
8:00 AM 80.6 °F 83.2 °F 68.0 °F 65% 29.95 in 5.6 mi East 12.7 mph - N/A   Scattered Clouds
8:30 AM 82.4 °F 85.4 °F 68.0 °F 62% 29.98 in 5.6 mi East 8.1 mph - N/A   Scattered Clouds
9:00 AM 84.2 °F 87.3 °F 68.0 °F 58% 29.98 in 5.6 mi East 13.8 mph - N/A   Scattered Clouds
9:30 AM 84.2 °F 87.3 °F 68.0 °F 58% 29.98 in 5.6 mi East 12.7 mph - N/A   Scattered Clouds
10:00 AM 86 °F - 70 °F 51% 29.94 in 6 mi ESE 11.5 mph - -   Scattered Clouds
10:00 AM 84.2 °F 86.6 °F 66.2 °F 55% 29.98 in 5.6 mi East 15.0 mph - N/A   Scattered Clouds
10:30 AM 86.0 °F 88.2 °F 66.2 °F 51% 29.98 in 5.6 mi ENE 15.0 mph - N/A   Scattered Clouds
11:00 AM 86.0 °F 88.2 °F 66.2 °F 51% 29.98 in 5.6 mi East 15.0 mph - N/A   Scattered Clouds
11:30 AM 86.0 °F 89.4 °F 68.0 °F 55% 29.98 in 5.6 mi ENE 12.7 mph - N/A   Scattered Clouds
12:00 PM 86.0 °F 89.4 °F 68.0 °F 55% 29.95 in 5.6 mi ENE 11.5 mph - N/A   Scattered Clouds
12:30 PM 87.8 °F 91.4 °F 68.0 °F 52% 29.95 in 5.6 mi ENE 10.4 mph - N/A   Partly Cloudy
1:00 PM 90 °F - 70 °F 42% 29.91 in 6 mi East 3.5 mph - -   Scattered Clouds
1:00 PM 87.8 °F 91.4 °F 68.0 °F 52% 29.92 in 5.6 mi ENE 11.5 mph - N/A   Partly Cloudy
1:30 PM 89.6 °F 93.4 °F 68.0 °F 49% 29.89 in 5.6 mi East 8.1 mph - N/A   Partly Cloudy
2:00 PM 89.6 °F 92.2 °F 66.2 °F 46% 29.89 in 5.6 mi ENE 11.5 mph - N/A   Partly Cloudy
2:30 PM 91.4 °F 94.0 °F 66.2 °F 43% 29.86 in 5.6 mi ENE 10.4 mph - N/A   Partly Cloudy
3:00 PM 91.4 °F 94.0 °F 66.2 °F 43% 29.86 in 5.6 mi ENE 11.5 mph - N/A   Partly Cloudy
3:30 PM 91.4 °F 94.0 °F 66.2 °F 43% 29.83 in 5.6 mi ENE 10.4 mph - N/A   Partly Cloudy
4:00 PM 93 °F - 68 °F 35% 29.81 in 6 mi Calm Calm - -   Scattered Clouds
4:00 PM 91.4 °F 93.2 °F 64.4 °F 41% 29.83 in 5.6 mi East 8.1 mph - N/A   Partly Cloudy
4:30 PM 87.8 °F 92.6 °F 69.8 °F 55% 29.83 in 5.6 mi WNW 12.7 mph - N/A   Partly Cloudy
5:00 PM 86.0 °F 90.4 °F 69.8 °F 58% 29.86 in 5.6 mi WNW 13.8 mph - N/A   Partly Cloudy
5:30 PM 86.0 °F 90.4 °F 69.8 °F 58% 29.86 in 5.6 mi WNW 12.7 mph - N/A   Partly Cloudy
6:00 PM 84.2 °F 88.4 °F 69.8 °F 62% 29.86 in 5.6 mi WNW 12.7 mph - N/A   Partly Cloudy
6:30 PM 84.2 °F 88.4 °F 69.8 °F 62% 29.89 in 5.0 mi NW 12.7 mph - N/A   Scattered Clouds
7:00 PM 85 °F - 72 °F 56% 29.83 in 6 mi Calm Calm - -   Haze
7:00 PM 84.2 °F 88.4 °F 69.8 °F 62% 29.89 in 5.0 mi WNW 6.9 mph - N/A   Mostly Cloudy
7:30 PM 82.4 °F 86.3 °F 69.8 °F 66% 29.89 in 5.0 mi NW 4.6 mph - N/A   Mostly Cloudy
8:00 PM 82.4 °F 87.2 °F 71.6 °F 70% 29.89 in 5.0 mi Variable 2.3 mph - N/A   Mostly Cloudy
8:30 PM 82.4 °F 87.2 °F 71.6 °F 70% 29.92 in 5.0 mi Variable 2.3 mph - N/A   Mostly Cloudy
9:00 PM 80.6 °F 84.6 °F 71.6 °F 74% 29.92 in 5.0 mi Calm Calm - N/A   Mostly Cloudy
9:30 PM 78.8 °F - 71.6 °F 78% 29.92 in 5.0 mi Calm Calm - N/A   Mostly Cloudy
10:00 PM 82 °F - 74 °F 71% 29.89 in 5 mi Calm Calm - -   Mist
10:00 PM 78.8 °F - 71.6 °F 78% 29.95 in 5.0 mi Variable 2.3 mph - N/A   Mostly Cloudy
10:30 PM 82.4 °F 84.6 °F 66.2 °F 58% 29.92 in 5.0 mi ESE 9.2 mph - N/A   Mostly Cloudy
11:00 PM 82.4 °F 84.6 °F 66.2 °F 58% 29.92 in 5.0 mi East 12.7 mph - N/A   Mostly Cloudy
11:30 PM 82.4 °F 84.6 °F 66.2 °F 58% 29.92 in 5.0 mi East 13.8 mph - N/A   Mostly Cloudy